Time,TemperatureF,DewpointF,PressureIn,WindDirection,WindDirectionDegrees,WindSpeedMPH,WindSpeedGustMPH,Humidity,HourlyPrecipIn,Conditions,Clouds,dailyrainin,SoftwareType,DateUTC
2013-06-09 00:03:00,68.0,57.0,30.02,East,94,0.0,3.0,67,0.00,,,0.00,,2013-06-09 04:03:00,
2013-06-09 00:12:00,68.0,57.0,30.02,East,94,0.0,3.0,67,0.00,,,0.00,,2013-06-09 04:12:00,
2013-06-09 00:23:00,68.0,57.0,30.02,East,96,1.0,3.0,68,0.00,,,0.00,,2013-06-09 04:23:00,
2013-06-09 00:33:00,68.0,58.0,30.02,ESE,103,0.0,3.0,70,0.00,,,0.00,,2013-06-09 04:33:00,
2013-06-09 00:43:00,68.0,58.0,30.02,ESE,103,0.0,3.0,70,0.00,,,0.00,,2013-06-09 04:43:00,
2013-06-09 00:53:00,68.0,58.0,30.02,ESE,103,0.0,1.0,70,0.00,,,0.00,,2013-06-09 04:53:00,
2013-06-09 01:02:00,68.0,57.0,30.03,SE,129,3.0,4.0,68,0.00,,,0.00,,2013-06-09 05:02:00,
2013-06-09 01:12:00,68.0,57.0,30.03,SE,129,3.0,4.0,68,0.00,,,0.00,,2013-06-09 05:12:00,
2013-06-09 01:22:00,68.0,57.0,30.03,ESE,114,3.0,5.0,67,0.00,,,0.00,,2013-06-09 05:22:00,
2013-06-09 01:32:00,69.0,58.0,30.03,ESE,120,1.0,4.0,67,0.00,,,0.00,,2013-06-09 05:32:00,
2013-06-09 01:42:00,69.0,58.0,30.03,ESE,120,1.0,4.0,67,0.00,,,0.00,,2013-06-09 05:42:00,
2013-06-09 01:52:00,68.0,57.0,30.03,ESE,120,1.0,2.0,68,0.00,,,0.00,,2013-06-09 05:52:00,
2013-06-09 02:02:00,67.0,57.0,30.03,East,98,1.0,2.0,70,0.00,,,0.00,,2013-06-09 06:02:00,
2013-06-09 02:12:00,67.0,57.0,30.03,East,98,1.0,2.0,70,0.00,,,0.00,,2013-06-09 06:12:00,
2013-06-09 02:22:00,66.0,57.0,30.03,ESE,103,1.0,2.0,72,0.00,,,0.00,,2013-06-09 06:22:00,
2013-06-09 02:32:00,66.0,58.0,30.03,ESE,118,2.0,3.0,75,0.00,,,0.00,,2013-06-09 06:32:00,
2013-06-09 02:42:00,66.0,58.0,30.03,ESE,118,2.0,3.0,75,0.00,,,0.00,,2013-06-09 06:42:00,
2013-06-09 02:52:00,65.0,57.0,30.03,ESE,118,0.0,1.0,76,0.00,,,0.00,,2013-06-09 06:52:00,
2013-06-09 03:02:00,65.0,58.0,30.03,ESE,107,2.0,3.0,79,0.00,,,0.00,,2013-06-09 07:02:00,
2013-06-09 03:12:00,65.0,58.0,30.03,ESE,107,2.0,3.0,79,0.00,,,0.00,,2013-06-09 07:12:00,
2013-06-09 03:22:00,65.0,58.0,30.03,ESE,109,2.0,3.0,79,0.00,,,0.00,,2013-06-09 07:22:00,
2013-06-09 03:32:00,65.0,59.0,30.03,ESE,110,1.0,2.0,80,0.00,,,0.00,,2013-06-09 07:32:00,
2013-06-09 03:42:00,65.0,59.0,30.03,ESE,110,1.0,2.0,80,0.00,,,0.00,,2013-06-09 07:42:00,
2013-06-09 03:53:00,65.0,59.0,30.03,ESE,110,0.0,1.0,81,0.00,,,0.00,,2013-06-09 07:53:00,
2013-06-09 04:02:00,65.0,59.0,30.03,ESE,103,1.0,2.0,81,0.00,,,0.00,,2013-06-09 08:02:00,
2013-06-09 04:12:00,65.0,59.0,30.03,ESE,103,1.0,2.0,81,0.00,,,0.00,,2013-06-09 08:12:00,
2013-06-09 04:22:00,65.0,59.0,30.03,East,100,2.0,3.0,82,0.00,,,0.00,,2013-06-09 08:22:00,
2013-06-09 04:32:00,65.0,60.0,30.03,East,98,1.0,2.0,83,0.00,,,0.00,,2013-06-09 08:32:00,
2013-06-09 04:42:00,65.0,60.0,30.03,East,98,1.0,2.0,83,0.00,,,0.00,,2013-06-09 08:42:00,
2013-06-09 04:53:00,65.0,60.0,30.03,East,98,0.0,2.0,83,0.00,,,0.00,,2013-06-09 08:53:00,
2013-06-09 05:02:00,65.0,60.0,30.03,East,98,1.0,2.0,84,0.00,,,0.00,,2013-06-09 09:02:00,
2013-06-09 05:12:00,65.0,60.0,30.03,East,98,1.0,2.0,84,0.00,,,0.00,,2013-06-09 09:12:00,
2013-06-09 05:22:00,65.0,60.0,30.03,East,98,0.0,1.0,84,0.00,,,0.00,,2013-06-09 09:22:00,
2013-06-09 05:33:00,64.0,59.0,30.03,ENE,78,3.0,6.0,85,0.00,,,0.00,,2013-06-09 09:33:00,
2013-06-09 05:43:00,64.0,59.0,30.03,ENE,78,3.0,6.0,85,0.00,,,0.00,,2013-06-09 09:43:00,
2013-06-09 05:53:00,64.0,59.0,30.04,SSE,160,1.0,2.0,84,0.00,,,0.00,,2013-06-09 09:53:00,
2013-06-09 06:03:00,65.0,60.0,30.04,SE,142,0.0,2.0,83,0.00,,,0.00,,2013-06-09 10:03:00,
2013-06-09 06:12:00,65.0,60.0,30.04,SE,142,0.0,2.0,83,0.00,,,0.00,,2013-06-09 10:12:00,
2013-06-09 06:23:00,65.0,60.0,30.03,ESE,115,1.0,3.0,83,0.00,,,0.00,,2013-06-09 10:23:00,
2013-06-09 06:32:00,64.0,59.0,30.04,ESE,103,1.0,3.0,83,0.00,,,0.00,,2013-06-09 10:32:00,
2013-06-09 06:43:00,64.0,59.0,30.04,ESE,103,1.0,3.0,83,0.00,,,0.00,,2013-06-09 10:43:00,
2013-06-09 06:52:00,64.0,59.0,30.04,SE,130,2.0,4.0,84,0.00,,,0.00,,2013-06-09 10:52:00,
2013-06-09 07:02:00,64.0,59.0,30.04,ESE,102,2.0,4.0,84,0.00,,,0.00,,2013-06-09 11:02:00,
2013-06-09 07:12:00,64.0,59.0,30.04,ESE,102,2.0,4.0,84,0.00,,,0.00,,2013-06-09 11:12:00,
2013-06-09 07:22:00,64.0,59.0,30.04,ESE,103,1.0,5.0,85,0.00,,,0.00,,2013-06-09 11:22:00,
2013-06-09 07:32:00,64.0,59.0,30.04,East,82,5.0,8.0,84,0.00,,,0.00,,2013-06-09 11:32:00,
2013-06-09 07:42:00,64.0,59.0,30.04,East,82,5.0,8.0,84,0.00,,,0.00,,2013-06-09 11:42:00,
2013-06-09 07:53:00,64.0,59.0,30.05,SE,128,3.0,6.0,83,0.00,,,0.00,,2013-06-09 11:53:00,
2013-06-09 08:02:00,65.0,60.0,30.05,ESE,103,3.0,7.0,83,0.00,,,0.00,,2013-06-09 12:02:00,
2013-06-09 08:12:00,65.0,60.0,30.05,ESE,103,3.0,7.0,83,0.00,,,0.00,,2013-06-09 12:12:00,
2013-06-09 08:22:00,65.0,59.0,30.05,ESE,109,4.0,8.0,82,0.00,,,0.00,,2013-06-09 12:22:00,
2013-06-09 08:32:00,66.0,60.0,30.05,SE,134,6.0,10.0,81,0.00,,,0.00,,2013-06-09 12:32:00,
2013-06-09 08:42:00,66.0,60.0,30.05,SE,134,6.0,10.0,81,0.00,,,0.00,,2013-06-09 12:42:00,
2013-06-09 08:53:00,66.0,60.0,30.04,SE,125,6.0,10.0,80,0.00,,,0.00,,2013-06-09 12:53:00,
2013-06-09 09:02:00,66.0,59.0,30.04,ESE,115,6.0,11.0,79,0.00,,,0.00,,2013-06-09 13:02:00,
2013-06-09 09:12:00,66.0,59.0,30.04,ESE,115,6.0,11.0,79,0.00,,,0.00,,2013-06-09 13:12:00,
2013-06-09 09:22:00,67.0,60.0,30.04,SE,125,6.0,10.0,79,0.00,,,0.00,,2013-06-09 13:22:00,
2013-06-09 09:32:00,68.0,61.0,30.04,ESE,112,6.0,8.0,78,0.00,,,0.00,,2013-06-09 13:32:00,
2013-06-09 09:42:00,68.0,61.0,30.04,ESE,112,6.0,8.0,78,0.00,,,0.00,,2013-06-09 13:42:00,
2013-06-09 09:52:00,68.0,61.0,30.04,SE,138,6.0,9.0,78,0.00,,,0.00,,2013-06-09 13:52:00,
2013-06-09 10:02:00,68.0,61.0,30.03,East,90,4.0,10.0,79,0.00,,,0.00,,2013-06-09 14:02:00,
2013-06-09 10:12:00,68.0,61.0,30.03,East,90,4.0,10.0,79,0.00,,,0.00,,2013-06-09 14:12:00,
2013-06-09 10:22:00,69.0,61.0,30.03,ESE,113,5.0,8.0,77,0.00,,,0.00,,2013-06-09 14:22:00,
2013-06-09 10:32:00,69.0,61.0,30.03,ESE,112,5.0,9.0,77,0.00,,,0.00,,2013-06-09 14:32:00,
2013-06-09 10:42:00,69.0,61.0,30.03,ESE,112,5.0,9.0,77,0.00,,,0.00,,2013-06-09 14:42:00,
2013-06-09 10:52:00,70.0,62.0,30.03,SE,126,3.0,7.0,77,0.00,,,0.00,,2013-06-09 14:52:00,
2013-06-09 11:02:00,70.0,62.0,30.03,SSE,153,4.0,10.0,76,0.00,,,0.00,,2013-06-09 15:02:00,
2013-06-09 11:12:00,70.0,62.0,30.03,SSE,153,4.0,10.0,76,0.00,,,0.00,,2013-06-09 15:12:00,
2013-06-09 11:22:00,71.0,63.0,30.02,SE,142,3.0,8.0,75,0.00,,,0.00,,2013-06-09 15:22:00,
2013-06-09 11:33:00,72.0,63.0,30.02,East,90,4.0,8.0,74,0.00,,,0.00,,2013-06-09 15:33:00,
2013-06-09 11:43:00,72.0,63.0,30.02,East,90,4.0,8.0,74,0.00,,,0.00,,2013-06-09 15:43:00,
2013-06-09 11:53:00,73.0,64.0,30.02,SE,131,5.0,8.0,73,0.00,,,0.00,,2013-06-09 15:53:00,
2013-06-09 12:03:00,74.0,64.0,30.02,SE,126,4.0,8.0,71,0.00,,,0.00,,2013-06-09 16:03:00,
2013-06-09 12:13:00,74.0,64.0,30.02,SE,126,4.0,8.0,71,0.00,,,0.00,,2013-06-09 16:13:00,
2013-06-09 12:23:00,75.0,64.0,30.03,SE,127,4.0,8.0,68,0.00,,,0.00,,2013-06-09 16:23:00,
2013-06-09 12:33:00,76.0,64.0,30.02,SE,144,3.0,7.0,66,0.00,,,0.00,,2013-06-09 16:33:00,
2013-06-09 12:42:00,76.0,64.0,30.02,SE,144,3.0,7.0,66,0.00,,,0.00,,2013-06-09 16:42:00,
2013-06-09 12:53:00,76.0,63.0,30.01,SE,134,5.0,10.0,65,0.00,,,0.00,,2013-06-09 16:53:00,
2013-06-09 13:03:00,76.0,62.0,30.01,ESE,115,5.0,9.0,63,0.00,,,0.00,,2013-06-09 17:03:00,
2013-06-09 13:12:00,76.0,62.0,30.01,ESE,115,5.0,9.0,63,0.00,,,0.00,,2013-06-09 17:12:00,
2013-06-09 13:22:00,77.0,62.0,30.01,ESE,116,7.0,11.0,60,0.00,,,0.00,,2013-06-09 17:22:00,
2013-06-09 13:32:00,76.0,62.0,30.00,ESE,117,6.0,11.0,62,0.00,,,0.00,,2013-06-09 17:32:00,
2013-06-09 13:42:00,76.0,62.0,30.00,ESE,117,6.0,11.0,62,0.00,,,0.00,,2013-06-09 17:42:00,
2013-06-09 13:52:00,76.0,62.0,29.99,SSE,163,3.0,8.0,62,0.00,,,0.00,,2013-06-09 17:52:00,
2013-06-09 14:02:00,76.0,62.0,29.99,South,183,6.0,10.0,62,0.00,,,0.00,,2013-06-09 18:02:00,
2013-06-09 14:12:00,76.0,62.0,29.99,South,183,6.0,10.0,62,0.00,,,0.00,,2013-06-09 18:12:00,
2013-06-09 14:22:00,77.0,63.0,29.98,East,96,7.0,11.0,62,0.00,,,0.00,,2013-06-09 18:22:00,
2013-06-09 14:32:00,78.0,62.0,29.97,South,182,4.0,8.0,57,0.00,,,0.00,,2013-06-09 18:32:00,
2013-06-09 14:42:00,78.0,62.0,29.97,South,182,4.0,8.0,57,0.00,,,0.00,,2013-06-09 18:42:00,
2013-06-09 14:52:00,78.0,62.0,29.97,SSE,159,6.0,11.0,57,0.00,,,0.00,,2013-06-09 18:52:00,
2013-06-09 15:02:00,78.0,61.0,29.96,SE,131,5.0,9.0,56,0.00,,,0.00,,2013-06-09 19:02:00,
2013-06-09 15:12:00,78.0,61.0,29.96,SE,131,5.0,9.0,56,0.00,,,0.00,,2013-06-09 19:12:00,
2013-06-09 15:22:00,78.0,60.0,29.96,SE,130,7.0,9.0,54,0.00,,,0.00,,2013-06-09 19:22:00,
2013-06-09 15:32:00,79.0,59.0,29.96,SE,130,4.0,11.0,50,0.00,,,0.00,,2013-06-09 19:32:00,
2013-06-09 15:42:00,79.0,59.0,29.96,SE,130,4.0,11.0,50,0.00,,,0.00,,2013-06-09 19:42:00,
2013-06-09 15:52:00,79.0,58.0,29.95,SE,137,8.0,13.0,49,0.00,,,0.00,,2013-06-09 19:52:00,
2013-06-09 16:02:00,79.0,59.0,29.94,SE,126,6.0,9.0,50,0.00,,,0.00,,2013-06-09 20:02:00,
2013-06-09 16:12:00,79.0,59.0,29.94,SE,126,6.0,9.0,50,0.00,,,0.00,,2013-06-09 20:12:00,
2013-06-09 16:22:00,80.0,60.0,29.93,SSE,164,6.0,13.0,50,0.00,,,0.00,,2013-06-09 20:22:00,
2013-06-09 16:32:00,80.0,58.0,29.93,ESE,119,5.0,9.0,47,0.00,,,0.00,,2013-06-09 20:32:00,
2013-06-09 16:42:00,80.0,58.0,29.93,ESE,119,5.0,9.0,47,0.00,,,0.00,,2013-06-09 20:42:00,
2013-06-09 16:52:00,80.0,58.0,29.92,SE,144,8.0,13.0,47,0.00,,,0.00,,2013-06-09 20:52:00,
2013-06-09 17:02:00,80.0,57.0,29.92,ESE,120,7.0,13.0,45,0.00,,,0.00,,2013-06-09 21:02:00,
2013-06-09 17:12:00,80.0,57.0,29.91,SE,132,10.0,13.0,45,0.00,,,0.00,,2013-06-09 21:12:00,
2013-06-09 17:22:00,80.0,57.0,29.91,SE,132,10.0,13.0,45,0.00,,,0.00,,2013-06-09 21:22:00,
2013-06-09 17:33:00,80.0,56.0,29.91,SSW,207,8.0,14.0,44,0.00,,,0.00,,2013-06-09 21:33:00,
2013-06-09 17:43:00,80.0,56.0,29.91,SSW,207,8.0,14.0,44,0.00,,,0.00,,2013-06-09 21:43:00,
2013-06-09 17:53:00,80.0,58.0,29.92,South,173,4.0,10.0,47,0.00,,,0.00,,2013-06-09 21:53:00,
2013-06-09 18:02:00,79.0,57.0,29.91,SE,140,7.0,11.0,47,0.00,,,0.00,,2013-06-09 22:02:00,
2013-06-09 18:13:00,79.0,58.0,29.91,SSE,153,3.0,8.0,48,0.00,,,0.00,,2013-06-09 22:13:00,
2013-06-09 18:23:00,79.0,58.0,29.91,SSE,153,3.0,8.0,48,0.00,,,0.00,,2013-06-09 22:23:00,
2013-06-09 18:33:00,79.0,58.0,29.91,SE,127,3.0,8.0,49,0.00,,,0.00,,2013-06-09 22:33:00,
2013-06-09 18:42:00,79.0,58.0,29.91,SE,127,3.0,8.0,49,0.00,,,0.00,,2013-06-09 22:42:00,
2013-06-09 18:52:00,79.0,59.0,29.91,SE,133,1.0,7.0,51,0.00,,,0.00,,2013-06-09 22:52:00,
2013-06-09 19:02:00,79.0,60.0,29.90,SE,128,1.0,3.0,52,0.00,,,0.00,,2013-06-09 23:02:00,
2013-06-09 19:12:00,78.0,60.0,29.89,ESE,114,2.0,4.0,54,0.00,,,0.00,,2013-06-09 23:12:00,
2013-06-09 19:22:00,78.0,60.0,29.89,ESE,114,2.0,4.0,54,0.00,,,0.00,,2013-06-09 23:22:00,
2013-06-09 19:32:00,79.0,60.0,29.88,ESE,117,3.0,5.0,52,0.00,,,0.00,,2013-06-09 23:32:00,
2013-06-09 19:43:00,79.0,60.0,29.88,ESE,117,3.0,5.0,52,0.00,,,0.00,,2013-06-09 23:43:00,
2013-06-09 19:52:00,79.0,60.0,29.88,SE,132,2.0,4.0,53,0.00,,,0.00,,2013-06-09 23:52:00,
2013-06-09 20:02:00,78.0,59.0,29.88,ESE,117,3.0,6.0,53,0.00,,,0.00,,2013-06-10 00:02:00,
2013-06-09 20:13:00,78.0,59.0,29.88,ESE,117,3.0,6.0,53,0.00,,,0.00,,2013-06-10 00:13:00,
2013-06-09 20:22:00,78.0,59.0,29.89,SE,128,5.0,10.0,53,0.00,,,0.00,,2013-06-10 00:22:00,
2013-06-09 20:32:00,76.0,60.0,29.90,SSE,159,7.0,15.0,57,0.00,,,0.00,,2013-06-10 00:32:00,
2013-06-09 20:42:00,76.0,60.0,29.90,SSE,159,7.0,15.0,57,0.00,,,0.00,,2013-06-10 00:42:00,
2013-06-09 20:52:00,75.0,59.0,29.90,SSW,192,7.0,13.0,58,0.00,,,0.00,,2013-06-10 00:52:00,
2013-06-09 21:02:00,75.0,60.0,29.89,ESE,123,5.0,9.0,60,0.00,,,0.00,,2013-06-10 01:02:00,
2013-06-09 21:12:00,75.0,60.0,29.89,ESE,123,5.0,9.0,60,0.00,,,0.00,,2013-06-10 01:12:00,
2013-06-09 21:22:00,74.0,60.0,29.89,SE,137,4.0,8.0,62,0.00,,,0.00,,2013-06-10 01:22:00,
2013-06-09 21:32:00,74.0,61.0,29.89,ESE,119,6.0,9.0,64,0.00,,,0.00,,2013-06-10 01:32:00,
2013-06-09 21:43:00,74.0,61.0,29.89,ESE,119,6.0,9.0,64,0.00,,,0.00,,2013-06-10 01:43:00,
2013-06-09 21:52:00,73.0,61.0,29.89,SE,142,5.0,10.0,67,0.00,,,0.00,,2013-06-10 01:52:00,
2013-06-09 22:02:00,73.0,62.0,29.89,SE,133,6.0,10.0,68,0.00,,,0.00,,2013-06-10 02:02:00,
2013-06-09 22:12:00,73.0,62.0,29.89,SE,133,6.0,10.0,68,0.00,,,0.00,,2013-06-10 02:12:00,
2013-06-09 22:22:00,73.0,63.0,29.89,SE,144,7.0,14.0,70,0.00,,,0.00,,2013-06-10 02:22:00,
2013-06-09 22:32:00,73.0,63.0,29.89,SE,145,4.0,11.0,71,0.00,,,0.00,,2013-06-10 02:32:00,
2013-06-09 22:42:00,73.0,63.0,29.89,SE,145,4.0,11.0,71,0.00,,,0.00,,2013-06-10 02:42:00,
2013-06-09 22:52:00,72.0,62.0,29.89,ESE,118,7.0,11.0,71,0.00,,,0.00,,2013-06-10 02:52:00,
2013-06-09 23:02:00,72.0,63.0,29.89,SE,140,5.0,13.0,73,0.00,,,0.00,,2013-06-10 03:02:00,
2013-06-09 23:12:00,72.0,63.0,29.89,SE,140,5.0,13.0,73,0.00,,,0.00,,2013-06-10 03:12:00,
2013-06-09 23:22:00,71.0,64.0,29.89,ESE,118,7.0,16.0,78,0.04,,,0.04,,2013-06-10 03:22:00,
2013-06-09 23:33:00,69.0,64.0,29.89,SE,126,4.0,6.0,84,0.05,,,0.05,,2013-06-10 03:33:00,
2013-06-09 23:43:00,69.0,64.0,29.89,SE,126,4.0,6.0,84,0.05,,,0.05,,2013-06-10 03:43:00,
2013-06-09 23:53:00,68.0,64.0,29.89,SE,132,2.0,4.0,87,0.05,,,0.05,,2013-06-10 03:53:00,